Location: Ailingen
(47.6833°N, 9.5000°E)
Time: 07:30:24
(UTC+00:00)

Cosmos 2369 Rocket - Pass Details

Date: 18 November 2025
Orbit: 826 x 853 km, 71.0° (Epoch: 13 December)

Event Time Altitude Azimuth Distance (km) Brightness Sun altitude
Rises 17:45:42 0° 171° (S) 3,355 5.3 -20.6°
Reaches altitude 10° 17:48:25 10° 160° (SSE) 2,430 4.4 -21.0°
Enters shadow 17:50:19 19° 145° (SE) 1,892 3.7 -21.4°
